Regional Weather Roundup
Issued by NWS

Home | Current Version | Previous Version | Text Only | Print | Product List | Glossary Off
Versions: 1 2 3 4 5 6 7 8 9 10 11 12 13 14 15 16 17 18 19 20 21 22 23 24 25 26 27 28 29 30 31 32 33 34 35 36 37 38 39 40 41 42 43 44 45 46 47 48 49 50

000
ASUS43 KLMK 021710
RWRKY
KENTUCKY REGIONAL WEATHER ROUNDUP
NATIONAL WEATHER SERVICE LOUISVILLE KY
1200 PM EST FRI DEC 02 2016

NOTE "FAIR" INDICATES FEW OR NO CLOUDS BELOW 12,000 FEET
WITH NO SIGNIFICANT WEATHER AND/OR OBSTRUCTIONS TO VISIBILITY.

KYZ001>023-026-027-061>063-070>075-021800-
WESTERN AND SOUTH CENTRAL KENTUCKY

CITY           SKY/WX    TMP DP  RH WIND       PRES   REMARKS
PADUCAH        SUNNY     49  29  46 N5        30.28F
HENDERSON      SUNNY     45  30  57 W8        30.28F
OWENSBORO      SUNNY     44  32  62 NW7       30.28F
HOPKINSVILLE   SUNNY     48  30  50 VRB5      30.27F
BOWLING GREEN  SUNNY     50  28  42 W9        30.28S
GLASGOW        SUNNY     47  31  55 W3        30.26F
$$

KYZ024-025-028>034-038-045-046-053-021800-
NORTH CENTRAL KENTUCKY

CITY           SKY/WX    TMP DP  RH WIND       PRES   REMARKS
LOUISVILLE/SDF PTSUNNY   45  28  51 W8        30.25F
LOUISVILLE/LOU PTSUNNY   44  30  57 W6        30.26S
FORT KNOX      MOSUNNY   42  30  62 VRB2      30.23S
$$

KYZ035>037-039>044-047>052-055>060-089>105-021800-
NORTHEAST KENTUCKY

CITY           SKY/WX    TMP DP  RH WIND       PRES   REMARKS
LEXINGTON      CLOUDY    41  29  62 NW10      30.24S
COVINGTON      CLOUDY    38  30  73 SW8       30.21R WCI  32
FRANKFORT      CLOUDY    41  28  60 NW3       30.23F
$$

KYZ054-064>069-076>088-106>120-021800-
SOUTHEAST KENTUCKY

CITY           SKY/WX    TMP DP  RH WIND       PRES   REMARKS
JACKSON        PTSUNNY   42  30  62 VRB7      30.21F
LONDON         SUNNY     45  28  51 W10       30.23S
SOMERSET       SUNNY     45  32  61 W9        30.26F
MIDDLESBORO    SUNNY     48  32  54 CALM      30.24S
MONTICELLO     SUNNY     48  31  51 W13G20    30.26F
$$




USA.gov is the U.S. government's official web portal to all federal, state and local government web resources and services.